Overview Statistics Trail Chart Weather Telemetry Raw packets
 

This is the latest recevied weather packets stored in our database for station/object KW4UJ. If no packets are shown the sender has not sent any weather packets the latest 10 day(s).

<< 92 93 94 95 96 97 98 >>
Time Temp. Humidity Pressure Rain* Wind** Luminosity Snow
1787947618 31.67° C 57% 1015.9 hPa 0 mm - 472 W/m² -
1787947316 32.22° C 57% 1016 hPa 0 mm - 482 W/m² -
1787947016 31.11° C 58% 1015.8 hPa 0 mm - 507 W/m² -
1787946715 31.67° C 57% 1016 hPa 0 mm - 527 W/m² -
1787946414 31.11° C 59% 1015.8 hPa 0 mm - 531 W/m² -
1787946109 31.67° C 57% 1016 hPa 0 mm - 522 W/m² -
1787945804 31.11° C 57% 1016 hPa 0 mm - 520 W/m² -
1787945504 31.11° C 58% 1016.1 hPa 0 mm - 516 W/m² -
1787945200 30.56° C 58% 1016.3 hPa 0 mm - 546 W/m² -
1787944898 31.11° C 60% 1016 hPa 0 mm - 540 W/m² -
1787944597 30.56° C 59% 1016.2 hPa 0 mm - 538 W/m² -
1787944293 30° C 59% 1016.3 hPa 0 mm - 547 W/m² -
1787943988 30° C 59% 1016.1 hPa 0 mm - 548 W/m² -
1787943684 29.44° C 60% 1016.2 hPa 0 mm - 574 W/m² -
1787943384 30.56° C 60% 1016.2 hPa 0 mm - 208 W/m² -
1787943078 31.11° C 59% 1016.3 hPa 0 mm - 571 W/m² -
1787942774 30.56° C 59% 1016.3 hPa 0 mm - 568 W/m² -
1787942474 30.56° C 60% 1016.3 hPa 0 mm - 575 W/m² -
1787942169 30° C 63% 1016.3 hPa 0 mm - 578 W/m² -
1787941864 30° C 60% 1016.4 hPa 0 mm - 566 W/m² -
1787941563 30.56° C 61% 1016.5 hPa 0 mm - 597 W/m² -
1787941258 30.56° C 61% 1016.4 hPa 0 mm - 591 W/m² -
1787940958 30° C 63% 1016.4 hPa 0 mm - 593 W/m² -
1787940656 30° C 63% 1016.4 hPa 0 mm - 612 W/m² -
1787940355 30° C 62% 1016.4 hPa 0 mm - 602 W/m² -

* Rain latest hour (hover to see other rain measurements)
** Current wind speed in m/s (hover to see current wind gust speed)